User: anonymous   Login
Location: Unspecified
(0.0000°N, 0.0000°E)
Time: 23:49:22
(UTC+00:00)
Language:

HORYU 2 - Orbit

View from above orbital plane
View from above orbital plane
View from above satellite
View from above satellite

Ground track
Ground track

The orbit data is extracted from the following two-line orbital elements,

1 38340U 12025D   17348.96045323 +.00000250 +00000-0 +44929-4 0  9992
2 38340 098.3755 359.2667 0012814 078.6791 281.5856 14.75465281289534
Epoch (UTC): 14 December 2017 23:03:03
Eccentricity: 0.0012814
inclination: 98.3755°
perigee height: 634 km
apogee height: 652 km
right ascension of ascending node: 359.2667°
argument of perigee: 78.6791°
revolutions per day: 14.75465281
mean anomaly at epoch: 281.5856°
orbit number at epoch: 28953

The dashed part of the orbit path shows where the satellite is in the earth's shadow,  

DLR